STARLINK-1522 1 46027U 20055A 21062.72493159 .00001255 00000-0 10309-3 0 9991 2 46027 53.0573 70.6249 0001032 76.9441 283.1663 15.06404524 32767 STARLINK-1523 1 46028U 20055B 21062.73968364 .00000709 00000-0 66470-4 0 9992 2 46028 53.0578 70.5395 0001106 80.9537 279.1577 15.06390800 32789 STARLINK-1526 1 46029U 20055C 21062.73231416 .00000956 00000-0 83086-4 0 9990 2 46029 53.0615 70.5797 0000938 73.1548 286.9544 15.06397962 32771 STARLINK-1534 1 46030U 20055D 21062.75074813 .00000760 00000-0 69924-4 0 9998 2 46030 53.0575 70.4977 0001231 76.4032 283.7094 15.06393860 32732 STARLINK-1544 1 46031U 20055E 21062.82076408 -.00001160 00000-0 -59037-4 0 9990 2 46031 53.0563 70.1809 0000725 80.9090 279.1981 15.06394171 32776 STARLINK-1555 1 46032U 20055F 21062.71756108 -.00000924 00000-0 -43163-4 0 9991 2 46032 53.0575 70.6442 0000840 86.0240 274.0845 15.06396140 32771 STARLINK-1556 1 46033U 20055G 21063.03086704 .00000085 00000-0 24618-4 0 9996 2 46033 53.0584 69.2429 0000720 86.3672 273.7399 15.06388397 32304 STARLINK-1557 1 46034U 20055H 21063.03455364 -.00001099 00000-0 -54902-4 0 9996 2 46034 53.0569 69.2222 0001243 92.6546 267.4585 15.06392891 32301 STARLINK-1558 1 46035U 20055J 21062.71018841 -.00000953 00000-0 -45099-4 0 9991 2 46035 53.0579 70.6886 0000738 91.0676 269.0397 15.06395271 32775 STARLINK-1560 1 46036U 20055K 21063.02718537 .00000781 00000-0 71332-4 0 9992 2 46036 53.0571 69.2554 0000938 86.2585 273.8511 15.06400956 32308 STARLINK-1565 1 46037U 20055L 21062.82446884 .00000936 00000-0 81711-4 0 9997 2 46037 53.0586 70.1611 0000936 73.7725 286.3367 15.06396090 32788 STARLINK-1567 1 46038U 20055M 21062.70651351 .00000631 00000-0 61247-4 0 9996 2 46038 53.0565 70.6971 0001059 79.7601 280.3507 15.06389825 32762 STARLINK-1569 1 46039U 20055N 21062.71388319 .00000717 00000-0 67017-4 0 9995 2 46039 53.0564 70.6646 0000855 103.1539 256.9546 15.06391105 32762 STARLINK-1576 1 46040U 20055P 21062.74336516 .00000985 00000-0 85000-4 0 9991 2 46040 53.0593 70.5318 0001397 74.5315 285.5828 15.06413088 32739 STARLINK-1580 1 46041U 20055Q 21062.41438080 .00000783 00000-0 71458-4 0 9993 2 46041 53.0571 72.0076 0000820 65.2833 294.8242 15.06389631 32690 STARLINK-1581 1 46042U 20055R 21062.72861916 .00000885 00000-0 78301-4 0 9993 2 46042 53.0614 70.5934 0000811 111.4799 248.6277 15.06407876 32732 STARLINK-1582 1 46043U 20055S 21062.72125162 -.00000653 00000-0 -24973-4 0 9991 2 46043 53.0567 70.6327 0000996 98.5066 261.6036 15.06397462 32763 STARLINK-1584 1 46044U 20055T 21062.73599427 -.00001238 00000-0 -64254-4 0 9998 2 46044 53.0582 70.5713 0001277 76.2715 283.8416 15.06396009 32771 STARLINK-1591 1 46045U 20055U 21062.74705123 -.00001426 00000-0 -76842-4 0 9997 2 46045 53.0579 70.5168 0001459 65.9358 294.1784 15.06392463 32753 STARLINK-1514 1 46046U 20055V 21062.68901872 .00001741 00000-0 13575-3 0 9991 2 46046 53.0581 60.7862 0001455 87.5075 272.6081 15.06390887 32873 STARLINK-1524 1 46047U 20055W 21062.70005575 -.00000752 00000-0 -31595-4 0 9996 2 46047 53.0587 60.7412 0000633 105.1692 254.9367 15.06397155 32909 STARLINK-1527 1 46048U 20055X 21062.69637897 .00000766 00000-0 70295-4 0 9996 2 46048 53.0577 60.7587 0000896 98.4449 261.6641 15.06397120 32886 STARLINK-1530 1 46049U 20055Y 21062.69268720 .00000707 00000-0 66339-4 0 9991 2 46049 53.0581 60.7771 0000919 88.8594 271.2501 15.06388191 32911 STARLINK-1535 1 46050U 20055Z 21062.72216716 -.00001445 00000-0 -78170-4 0 9993 2 46050 53.0546 60.6333 0000853 112.4457 247.6622 15.06389918 32915 STARLINK-1540 1 46051U 20055AA 21062.72955531 .00000899 00000-0 79248-4 0 9996 2 46051 53.0583 60.6027 0000848 79.3562 280.7522 15.06393300 32927 STARLINK-1541 1 46052U 20055AB 21062.71481611 .00001154 00000-0 96368-4 0 9996 2 46052 53.0578 60.6759 0001815 60.3239 299.7930 15.06395137 32888 STARLINK-1543 1 46053U 20055AC 21062.71849028 .00000798 00000-0 72497-4 0 9997 2 46053 53.0572 60.6478 0001248 78.6034 281.5095 15.06390125 32913 STARLINK-1548 1 46054U 20055AD 21062.72585934 .00000696 00000-0 65622-4 0 9991 2 46054 53.0548 60.6155 0001092 97.1655 262.9459 15.06400622 32912 STARLINK-1554 1 46055U 20055AE 21062.77746317 .00000902 00000-0 79446-4 0 9990 2 46055 53.0569 60.3828 0000900 83.9686 276.1405 15.06399346 32923 STARLINK-1561 1 46056U 20055AF 21062.79958476 .00000945 00000-0 82319-4 0 9994 2 46056 53.0587 60.2820 0000831 82.3388 277.7695 15.06398705 32937 STARLINK-1562 1 46057U 20055AG 21062.71938807 .00000813 00000-0 74926-4 0 9992 2 46057 53.0014 60.6456 0000867 84.1540 275.9547 15.05579093 32881 STARLINK-1564 1 46058U 20055AH 21062.67794265 .00000739 00000-0 68504-4 0 9998 2 46058 53.0565 60.8417 0000858 93.3967 266.7120 15.06399980 32901 STARLINK-1570 1 46059U 20055AJ 21062.68530942 -.00000883 00000-0 -40436-4 0 9996 2 46059 53.0577 60.8113 0000919 119.6214 240.4866 15.06394766 32861 STARLINK-1572 1 46060U 20055AK 21062.68164278 .00000881 00000-0 78015-4 0 9993 2 46060 53.0567 60.8271 0001019 111.4744 248.6354 15.06392029 32870 STARLINK-1573 1 46061U 20055AL 21062.27616969 -.00001323 00000-0 -69934-4 0 9992 2 46061 53.0584 62.6461 0001218 73.0154 287.0968 15.06393921 32847 STARLINK-1574 1 46062U 20055AM 21062.70741492 .00000780 00000-0 71232-4 0 9999 2 46062 53.0582 60.7039 0001304 73.2799 286.8333 15.06403028 32875 STARLINK-1577 1 46063U 20055AN 21063.03546759 .00000226 00000-0 34065-4 0 9994 2 46063 53.0567 59.2380 0000896 90.0451 270.0641 15.06400515 32413 STARLINK-1583 1 46064U 20055AP 21062.40517497 .00000608 00000-0 59709-4 0 9998 2 46064 53.0580 62.0635 0000924 103.2742 256.8350 15.06401489 32865 STARLINK-1515 1 46065U 20055AQ 21063.19212707 -.00000238 00000-0 29303-5 0 9990 2 46065 53.0582 38.5009 0001554 69.7970 290.3185 15.06396976 32751 STARLINK-1525 1 46066U 20055AR 21063.19950965 .00002255 00000-0 17028-3 0 9995 2 46066 53.0591 38.4682 0001613 60.1790 299.9359 15.06393739 32728 STARLINK-1529 1 46067U 20055AS 21062.67241645 .00000672 00000-0 64012-4 0 9993 2 46067 53.0590 40.8360 0001836 38.0271 322.0848 15.06389855 33189 STARLINK-1532 1 46068U 20055AT 21062.41807558 -.00000506 00000-0 -15102-4 0 9991 2 46068 53.0597 41.9752 0001505 52.1687 307.9439 15.06396812 33140 STARLINK-1533 1 46069U 20055AU 21062.76456492 .00001035 00000-0 88372-4 0 9992 2 46069 53.0585 40.4158 0001506 54.7098 305.4032 15.06392571 33204 STARLINK-1536 1 46070U 20055AV 21062.77930514 .00001054 00000-0 89606-4 0 9999 2 46070 53.0583 40.3530 0001370 52.2042 307.9071 15.06402824 33201 STARLINK-1538 1 46071U 20055AW 21062.66503040 -.00000126 00000-0 10465-4 0 9995 2 46071 53.0582 40.8642 0001768 66.0608 294.0566 15.06392062 33186 STARLINK-1539 1 46072U 20055AX 21063.08798335 .00010739 00000-0 73919-3 0 9998 2 46072 53.0555 39.0011 0001069 49.9931 310.1151 15.06377423 32701 STARLINK-1542 1 46073U 20055AY 21062.63923898 .00001353 00000-0 10974-3 0 9997 2 46073 53.0581 40.9864 0001461 54.4603 305.6522 15.06397289 33176 STARLINK-1549 1 46074U 20055AZ 21063.08891568 -.00001762 00000-0 -99376-4 0 9996 2 46074 53.0607 38.9569 0001544 52.7356 307.3773 15.06403419 32712 STARLINK-1551 1 46075U 20055BA 21062.65029700 -.00000655 00000-0 -25103-4 0 9997 2 46075 53.0582 40.9285 0001217 56.8530 303.2576 15.06396275 33177 STARLINK-1552 1 46076U 20055BB 21062.34435973 -.00001430 00000-0 -77135-4 0 9991 2 46076 53.0589 42.3107 0001857 57.3373 302.7795 15.06393149 33113 STARLINK-1559 1 46077U 20055BC 21063.18843976 -.00001239 00000-0 -64317-4 0 9996 2 46077 53.0584 38.5148 0001260 50.0164 310.0935 15.06394098 32725 STARLINK-1563 1 46078U 20055BD 21062.63554581 -.00000297 00000-0 -10463-5 0 9994 2 46078 53.0574 41.0026 0001420 56.4265 303.6859 15.06399447 33142 STARLINK-1566 1 46079U 20055BE 21062.62817769 -.00000894 00000-0 -41121-4 0 9991 2 46079 53.0591 41.0288 0001533 55.7396 304.3738 15.06395845 33179 STARLINK-1568 1 46080U 20055BF 21062.58763519 -.00001218 00000-0 -62850-4 0 9994 2 46080 53.0580 41.2155 0002202 24.7635 335.3460 15.06395198 33144 STARLINK-1571 1 46081U 20055BG 21062.42176479 -.00000229 00000-0 35390-5 0 9991 2 46081 53.0454 41.9643 0001328 111.6774 248.4356 15.06388302 33138 STARLINK-1578 1 46082U 20055BH 21062.64292148 .00001116 00000-0 93776-4 0 9994 2 46082 53.0598 40.9608 0001583 38.5598 321.5504 15.06407876 33172 STARLINK-1579 1 46083U 20055BJ 21062.41441152 .00000736 00000-0 68345-4 0 9992 2 46083 53.0586 41.9896 0001688 67.0140 293.1027 15.06394237 33132 FALCON 9 DEB 1 46084U 20055BK 21062.43469380 .00019197 00000-0 22606-3 0 9998 2 46084 53.0153 357.7954 0011039 256.3182 103.6602 15.61387785 37089 FALCON 9 DEB 1 46085U 20055BL 21062.53274605 .00019942 00000-0 23252-3 0 9990 2 46085 53.0131 356.9364 0008807 252.5109 107.4941 15.61642053 37099 FALCON 9 DEB 1 46086U 20055BM 21063.18061121 .00018993 00000-0 21334-3 0 9994 2 46086 53.0100 352.3201 0012096 240.0486 119.9327 15.62608368 37213 FALCON 9 DEB 1 46087U 20055BN 21062.43345595 .00019701 00000-0 21833-3 0 9994 2 46087 53.0087 355.4500 0010420 229.7648 130.2454 15.62949262 37103 GLOBAL-7 1 46088U 20055BP 21062.53853061 .00013944 00000-0 20197-3 0 9993 2 46088 53.0078 2.6362 0003911 29.5660 330.5571 15.56195399 37010 GLOBAL-8 1 46089U 20055BQ 21062.44927586 .00002663 00000-0 44539-4 0 9991 2 46089 53.0089 3.5207 0002756 84.5482 275.5842 15.55980169 36991 FALCON 9 DEB 1 46090U 20055BR 21062.51180954 .00026955 00000-0 29582-3 0 9991 2 46090 53.0059 355.8938 0009890 248.9871 111.0085 15.62996667 37103